| time (UTC) | temp C | wind direction | speed KPH | gust KPH | rain 1hr cm | rain 24hr cm | rain mn cm | humidity % | barometer mb |
| 20260508044035 | 11 | 283 | 4.8 | 17.7 | 0.00 | 0.18 | 0.00 | 48 | 1014.4 |
| 20260508043535 | 11 | 6 | 8.0 | 16.1 | 0.00 | 0.18 | 0.00 | 47 | 1014.5 |
| 20260508043046 | 11 | 2 | 9.7 | 16.1 | 0.00 | 0.18 | 0.00 | 49 | 1014.5 |
| 20260508042540 | 10 | 323 | 1.6 | 11.3 | 0.00 | 0.18 | 0.00 | 52 | 1014.4 |
| 20260508042035 | 11 | 234 | 3.2 | 11.3 | 0.00 | 0.18 | 0.00 | 53 | 1014.3 |
| 20260508041544 | 11 | 336 | 4.8 | 11.3 | 0.00 | 0.18 | 0.00 | 50 | 1014.4 |
| 20260508041035 | 11 | 0 | 1.6 | 8.0 | 0.00 | 0.18 | 0.00 | 53 | 1014.3 |
| 20260508040535 | 11 | 294 | 3.2 | 19.3 | 0.00 | 0.18 | 0.00 | 51 | 1014.3 |
| 20260508040043 | 11 | 234 | 3.2 | 19.3 | 0.00 | 0.18 | 0.00 | 51 | 1014.2 |
| 20260508035535 | 11 | 44 | 4.8 | 9.7 | 0.00 | 0.20 | 0.18 | 51 | 1014.3 |
| 20260508035036 | 11 | 120 | 1.6 | 11.3 | 0.00 | 0.20 | 0.18 | 51 | 1014.2 |
| 20260508034553 | 11 | 338 | 4.8 | 14.5 | 0.00 | 0.20 | 0.18 | 51 | 1014.1 |
| 20260508034034 | 11 | 345 | 8.0 | 14.5 | 0.00 | 0.20 | 0.18 | 52 | 1014.1 |
| 20260508033535 | 11 | 347 | 4.8 | 11.3 | 0.00 | 0.20 | 0.18 | 53 | 1014.1 |
| 20260508033046 | 11 | 304 | 1.6 | 14.5 | 0.00 | 0.20 | 0.18 | 54 | 1014.1 |
| 20260508032536 | 11 | 339 | 3.2 | 14.5 | 0.00 | 0.20 | 0.18 | 53 | 1014.1 |
| 20260508032035 | 10 | 323 | 4.8 | 14.5 | 0.00 | 0.20 | 0.18 | 57 | 1014.2 |
| 20260508031546 | 11 | 65 | 3.2 | 6.4 | 0.00 | 0.20 | 0.18 | 56 | 1014.3 |
| 20260508031035 | 11 | 0 | 1.6 | 11.3 | 0.00 | 0.20 | 0.18 | 57 | 1014.2 |
| 20260508030535 | 11 | 352 | 4.8 | 11.3 | 0.00 | 0.20 | 0.18 | 52 | 1014.1 |
| 20260508030056 | 11 | 334 | 3.2 | 8.0 | 0.00 | 0.20 | 0.18 | 54 | 1014.0 |
| 20260508025535 | 11 | 0 | 1.6 | 19.3 | 0.00 | 0.28 | 0.18 | 53 | 1014.0 |
| 20260508025035 | 12 | 0 | 3.2 | 19.3 | 0.00 | 0.28 | 0.18 | 51 | 1013.8 |
| 20260508024553 | 12 | 333 | 8.0 | 19.3 | 0.00 | 0.28 | 0.18 | 50 | 1013.8 |
| 20260508024036 | 12 | 310 | 3.2 | 11.3 | 0.00 | 0.28 | 0.18 | 51 | 1013.7 |
| 20260508023535 | 12 | 345 | 3.2 | 12.9 | 0.00 | 0.28 | 0.18 | 52 | 1013.7 |
| 20260508023048 | 12 | 355 | 6.4 | 12.9 | 0.00 | 0.28 | 0.18 | 49 | 1013.6 |
| 20260508022534 | 12 | 349 | 4.8 | 19.3 | 0.00 | 0.28 | 0.18 | 49 | 1013.6 |
| 20260508022035 | 12 | 319 | 8.0 | 22.5 | 0.00 | 0.28 | 0.18 | 48 | 1013.6 |
| 20260508021539 | 12 | 3 | 6.4 | 22.5 | 0.00 | 0.28 | 0.18 | 48 | 1013.5 |
| 20260508021037 | 12 | 6 | 8.0 | 24.1 | 0.00 | 0.28 | 0.18 | 49 | 1013.4 |
| 20260508020535 | 12 | 276 | 6.4 | 24.1 | 0.00 | 0.28 | 0.18 | 49 | 1013.5 |
| 20260508020042 | 12 | 34 | 6.4 | 19.3 | 0.00 | 0.28 | 0.18 | 50 | 1013.4 |
| 20260508015535 | 12 | 271 | 6.4 | 17.7 | 0.00 | 0.28 | 0.18 | 50 | 1013.4 |
| 20260508015035 | 12 | 269 | 4.8 | 14.5 | 0.00 | 0.28 | 0.18 | 53 | 1013.3 |
| 20260508014546 | 12 | 356 | 4.8 | 14.5 | 0.00 | 0.28 | 0.18 | 51 | 1013.2 |
| 20260508014035 | 12 | 6 | 4.8 | 9.7 | 0.00 | 0.28 | 0.18 | 51 | 1013.2 |
| 20260508013535 | 12 | 0 | 3.2 | 9.7 | 0.00 | 0.28 | 0.18 | 52 | 1013.1 |
| 20260508013043 | 13 | 349 | 3.2 | 8.0 | 0.00 | 0.28 | 0.18 | 48 | 1012.9 |
| 20260508012535 | 13 | 353 | 0.0 | 22.5 | 0.00 | 0.28 | 0.18 | 48 | 1012.9 |
| 20260508012037 | 13 | 9 | 8.0 | 22.5 | 0.00 | 0.28 | 0.18 | 47 | 1012.8 |
| 20260508011549 | 13 | 134 | 1.6 | 14.5 | 0.00 | 0.28 | 0.18 | 47 | 1012.8 |
| 20260508011035 | 13 | 345 | 4.8 | 14.5 | 0.00 | 0.28 | 0.18 | 48 | 1012.8 |
| 20260508010535 | 13 | 290 | 4.8 | 22.5 | 0.00 | 0.28 | 0.18 | 48 | 1012.7 |
| 20260508010058 | 13 | 351 | 3.2 | 24.1 | 0.00 | 0.28 | 0.18 | 48 | 1012.6 |
| 20260508005539 | 13 | 150 | 6.4 | 24.1 | 0.00 | 0.28 | 0.18 | 46 | 1012.4 |
| 20260508005036 | 13 | 342 | 11.3 | 24.1 | 0.00 | 0.28 | 0.18 | 47 | 1012.4 |
| 20260508004554 | 13 | 263 | 3.2 | 12.9 | 0.00 | 0.28 | 0.18 | 48 | 1012.3 |
| 20260508004036 | 13 | 340 | 4.8 | 12.9 | 0.00 | 0.28 | 0.18 | 51 | 1012.1 |
| 20260508003535 | 13 | 325 | 4.8 | 16.1 | 0.00 | 0.28 | 0.18 | 55 | 1012.2 |
| 20260508003056 | 13 | 259 | 0.0 | 16.1 | 0.00 | 0.28 | 0.18 | 53 | 1012.0 |
| 20260508002536 | 13 | 328 | 6.4 | 19.3 | 0.00 | 0.28 | 0.18 | 49 | 1012.0 |
| 20260508002036 | 13 | 150 | 6.4 | 19.3 | 0.00 | 0.28 | 0.18 | 53 | 1012.0 |
| 20260508001541 | 12 | 141 | 3.2 | 9.7 | 0.00 | 0.28 | 0.18 | 62 | 1011.7 |
| 20260508001035 | 13 | 304 | 3.2 | 6.4 | 0.00 | 0.28 | 0.18 | 57 | 1011.8 |
| 20260508000538 | 13 | 131 | 1.6 | 4.8 | 0.00 | 0.28 | 0.18 | 56 | 1011.7 |
| 20260508000047 | 13 | 114 | 1.6 | 6.4 | 0.00 | 0.28 | 0.18 | 60 | 1011.7 |
| 20260507235533 | 14 | 0 | 1.6 | 6.4 | 0.00 | 0.28 | 0.18 | 56 | 1011.6 |
| 20260507235035 | 14 | 151 | 1.6 | 6.4 | 0.00 | 0.28 | 0.18 | 58 | 1011.5 |
| 20260507234544 | 15 | 0 | 1.6 | 6.4 | 0.00 | 0.28 | 0.18 | 53 | 1011.4 |
| 20260507234035 | 15 | 14 | 3.2 | 16.1 | 0.00 | 0.28 | 0.18 | 53 | 1011.3 |
| 20260507233535 | 16 | 81 | 4.8 | 16.1 | 0.00 | 0.28 | 0.18 | 49 | 1011.1 |
| 20260507233043 | 16 | 153 | 3.2 | 11.3 | 0.00 | 0.28 | 0.18 | 48 | 1011.1 |
| 20260507232536 | 16 | 0 | 3.2 | 11.3 | 0.00 | 0.28 | 0.18 | 45 | 1011.3 |
| 20260507232034 | 17 | 245 | 3.2 | 11.3 | 0.00 | 0.28 | 0.18 | 46 | 1011.0 |
| 20260507231546 | 16 | 139 | 3.2 | 11.3 | 0.00 | 0.28 | 0.18 | 45 | 1010.8 |
| 20260507231035 | 16 | 159 | 1.6 | 14.5 | 0.00 | 0.28 | 0.18 | 47 | 1010.9 |
| 20260507230536 | 16 | 188 | 4.8 | 14.5 | 0.00 | 0.28 | 0.18 | 45 | 1010.8 |
| 20260507230038 | 17 | 168 | 4.8 | 14.5 | 0.00 | 0.28 | 0.18 | 45 | 1010.7 |
| 20260507225535 | 17 | 195 | 4.8 | 14.5 | 0.00 | 0.28 | 0.18 | 47 | 1010.7 |
| 20260507225035 | 17 | 186 | 6.4 | 14.5 | 0.00 | 0.28 | 0.18 | 44 | 1010.4 |
| 20260507224545 | 18 | 169 | 3.2 | 14.5 | 0.00 | 0.28 | 0.18 | 43 | 1010.4 |
| 20260507224035 | 18 | 282 | 3.2 | 20.9 | 0.00 | 0.28 | 0.18 | 44 | 1010.5 |
| 20260507223539 | 18 | 243 | 3.2 | 20.9 | 0.00 | 0.28 | 0.18 | 43 | 1010.2 |
| 20260507223037 | 18 | 58 | 3.2 | 9.7 | 0.00 | 0.28 | 0.18 | 46 | 1010.2 |
| 20260507222537 | 18 | 160 | 3.2 | 11.3 | 0.00 | 0.28 | 0.18 | 45 | 1010.2 |
| 20260507222034 | 18 | 282 | 4.8 | 11.3 | 0.00 | 0.28 | 0.18 | 47 | 1010.2 |
| 20260507221539 | 18 | 224 | 3.2 | 11.3 | 0.00 | 0.28 | 0.18 | 52 | 1009.9 |
| 20260507221035 | 18 | 91 | 1.6 | 12.9 | 0.00 | 0.28 | 0.18 | 53 | 1010.0 |
| 20260507220534 | 17 | 165 | 3.2 | 14.5 | 0.00 | 0.28 | 0.18 | 52 | 1009.9 |
| 20260507220039 | 17 | 262 | 4.8 | 14.5 | 0.00 | 0.28 | 0.18 | 49 | 1009.8 |
| 20260507215535 | 17 | 229 | 3.2 | 11.3 | 0.00 | 0.28 | 0.18 | 55 | 1009.8 |
| 20260507215035 | 17 | 204 | 4.8 | 16.1 | 0.00 | 0.28 | 0.18 | 61 | 1009.7 |
| 20260507214545 | 17 | 170 | 3.2 | 16.1 | 0.00 | 0.28 | 0.18 | 69 | 1009.7 |
| 20260507214034 | 17 | 152 | 8.0 | 14.5 | 0.00 | 0.28 | 0.18 | 67 | 1009.5 |
| 20260507213535 | 17 | 167 | 9.7 | 14.5 | 0.00 | 0.28 | 0.18 | 70 | 1009.6 |
| 20260507213102 | 17 | 110 | 3.2 | 14.5 | 0.00 | 0.28 | 0.18 | 70 | 1009.6 |
| 20260507212539 | 17 | 174 | 8.0 | 14.5 | 0.00 | 0.28 | 0.18 | 74 | 1009.5 |
| 20260507212036 | 17 | 126 | 8.0 | 12.9 | 0.00 | 0.28 | 0.18 | 73 | 1009.6 |
| 20260507211543 | 17 | 188 | 4.8 | 12.9 | 0.00 | 0.28 | 0.18 | 72 | 1009.6 |
| 20260507211037 | 17 | 191 | 4.8 | 9.7 | 0.00 | 0.28 | 0.18 | 73 | 1009.5 |
| 20260507210537 | 17 | 233 | 1.6 | 9.7 | 0.00 | 0.28 | 0.18 | 74 | 1009.6 |
| 20260507210046 | 16 | 0 | 3.2 | 9.7 | 0.00 | 0.28 | 0.18 | 75 | 1009.6 |
| 20260507205537 | 16 | 197 | 6.4 | 17.7 | 0.00 | 0.28 | 0.18 | 76 | 1009.7 |
| 20260507205037 | 16 | 91 | 1.6 | 17.7 | 0.00 | 0.28 | 0.18 | 77 | 1009.8 |
| 20260507204557 | 16 | 172 | 9.7 | 17.7 | 0.00 | 0.28 | 0.18 | 77 | 1009.5 |
| 20260507204036 | 16 | 224 | 8.0 | 16.1 | 0.00 | 0.28 | 0.18 | 77 | 1009.5 |
| 20260507203540 | 16 | 148 | 9.7 | 16.1 | 0.00 | 0.28 | 0.18 | 77 | 1009.5 |
| 20260507203045 | 16 | 193 | 8.0 | 16.1 | 0.00 | 0.28 | 0.18 | 77 | 1009.6 |
| 20260507202537 | 16 | 145 | 6.4 | 14.5 | 0.00 | 0.28 | 0.18 | 78 | 1009.7 |
| 20260507202036 | 16 | 167 | 3.2 | 11.3 | 0.00 | 0.28 | 0.18 | 79 | 1009.8 |
| 20260507201544 | 15 | 136 | 3.2 | 14.5 | 0.00 | 0.28 | 0.18 | 78 | 1009.8 |
| 20260507201036 | 15 | 115 | 1.6 | 14.5 | 0.00 | 0.28 | 0.18 | 79 | 1010.0 |
| 20260507200536 | 16 | 126 | 8.0 | 14.5 | 0.00 | 0.28 | 0.18 | 79 | 1009.9 |
| 20260507200042 | 16 | 160 | 8.0 | 16.1 | 0.00 | 0.28 | 0.18 | 80 | 1010.0 |
| 20260507195536 | 15 | 165 | 6.4 | 16.1 | 0.00 | 0.28 | 0.18 | 81 | 1009.9 |
| 20260507195040 | 15 | 179 | 6.4 | 11.3 | 0.00 | 0.28 | 0.18 | 81 | 1010.1 |
| 20260507194547 | 15 | 170 | 3.2 | 9.7 | 0.00 | 0.28 | 0.18 | 80 | 1010.1 |
| 20260507194037 | 15 | 166 | 1.6 | 6.4 | 0.00 | 0.28 | 0.18 | 82 | 1010.2 |
| 20260507193537 | 15 | 150 | 1.6 | 8.0 | 0.00 | 0.28 | 0.18 | 83 | 1010.3 |
| 20260507193047 | 14 | 141 | 4.8 | 8.0 | 0.00 | 0.28 | 0.18 | 83 | 1010.3 |
| 20260507192537 | 14 | 226 | 1.6 | 8.0 | 0.00 | 0.28 | 0.18 | 82 | 1010.4 |
| 20260507192036 | 14 | 218 | 4.8 | 9.7 | 0.00 | 0.28 | 0.18 | 84 | 1010.7 |
| 20260507191544 | 14 | 219 | 4.8 | 11.3 | 0.00 | 0.28 | 0.18 | 84 | 1010.7 |
| 20260507191036 | 14 | 169 | 4.8 | 11.3 | 0.00 | 0.28 | 0.18 | 84 | 1010.7 |
| 20260507190536 | 14 | 141 | 6.4 | 14.5 | 0.00 | 0.28 | 0.18 | 84 | 1010.7 |
| 20260507190044 | 14 | 160 | 4.8 | 14.5 | 0.00 | 0.28 | 0.18 | 85 | 1010.9 |
| 20260507185536 | 13 | 198 | 1.6 | 11.3 | 0.00 | 0.28 | 0.18 | 87 | 1010.8 |
| 20260507185036 | 13 | 166 | 3.2 | 8.0 | 0.03 | 0.28 | 0.18 | 87 | 1010.8 |
| 20260507184540 | 13 | 158 | 1.6 | 11.3 | 0.03 | 0.28 | 0.18 | 88 | 1011.1 |
| 20260507184038 | 13 | 120 | 3.2 | 11.3 | 0.03 | 0.28 | 0.18 | 89 | 1011.1 |
| 20260507183537 | 13 | 152 | 4.8 | 12.9 | 0.03 | 0.28 | 0.18 | 89 | 1011.1 |
| 20260507183049 | 13 | 167 | 4.8 | 12.9 | 0.03 | 0.28 | 0.18 | 91 | 1011.1 |
| 20260507182537 | 13 | 166 | 4.8 | 9.7 | 0.03 | 0.28 | 0.18 | 91 | 1011.1 |
| 20260507182038 | 12 | 148 | 6.4 | 9.7 | 0.03 | 0.28 | 0.18 | 90 | 1011.3 |
| 20260507181546 | 12 | 118 | 3.2 | 8.0 | 0.03 | 0.28 | 0.18 | 92 | 1011.2 |
| 20260507181039 | 12 | 184 | 3.2 | 8.0 | 0.03 | 0.28 | 0.18 | 91 | 1011.4 |
| 20260507180537 | 12 | 167 | 4.8 | 8.0 | 0.03 | 0.28 | 0.18 | 91 | 1011.1 |
| 20260507180050 | 12 | 159 | 3.2 | 8.0 | 0.03 | 0.28 | 0.18 | 91 | 1011.2 |
| 20260507175535 | 12 | 136 | 3.2 | 8.0 | 0.00 | 0.25 | 0.15 | 91 | 1011.5 |
| 20260507175035 | 12 | 155 | 3.2 | 8.0 | 0.00 | 0.25 | 0.15 | 91 | 1011.7 |
| 20260507174543 | 12 | 145 | 3.2 | 4.8 | 0.00 | 0.25 | 0.15 | 90 | 1011.4 |
| 20260507174034 | 12 | 191 | 1.6 | 8.0 | 0.00 | 0.25 | 0.15 | 91 | 1011.6 |
| 20260507173534 | 12 | 228 | 3.2 | 8.0 | 0.00 | 0.25 | 0.15 | 91 | 1011.5 |
| 20260507173041 | 12 | 137 | 1.6 | 6.4 | 0.00 | 0.25 | 0.15 | 92 | 1011.4 |
| 20260507172538 | 12 | 195 | 1.6 | 11.3 | 0.00 | 0.25 | 0.15 | 92 | 1011.5 |
| 20260507172035 | 12 | 239 | 3.2 | 11.3 | 0.00 | 0.25 | 0.15 | 92 | 1011.7 |
| 20260507171539 | 12 | 0 | 1.6 | 4.8 | 0.00 | 0.25 | 0.15 | 91 | 1011.7 |
| 20260507171035 | 12 | 0 | 1.6 | 6.4 | 0.00 | 0.25 | 0.15 | 92 | 1011.8 |
| 20260507170535 | 12 | 239 | 3.2 | 6.4 | 0.00 | 0.25 | 0.15 | 92 | 1011.9 |
| 20260507170049 | 12 | 151 | 3.2 | 6.4 | 0.00 | 0.25 | 0.15 | 92 | 1012.0 |
| 20260507165534 | 12 | 149 | 3.2 | 4.8 | 0.00 | 0.25 | 0.15 | 92 | 1012.0 |
| 20260507165037 | 12 | 173 | 3.2 | 4.8 | 0.00 | 0.25 | 0.15 | 92 | 1012.0 |
| 20260507164546 | 12 | 155 | 3.2 | 6.4 | 0.00 | 0.25 | 0.15 | 92 | 1012.0 |
| 20260507164034 | 12 | 210 | 3.2 | 6.4 | 0.00 | 0.25 | 0.15 | 91 | 1012.1 |
| 20260507163538 | 12 | 206 | 1.6 | 4.8 | 0.00 | 0.25 | 0.15 | 92 | 1012.0 |
| 20260507163045 | 12 | 259 | 1.6 | 4.8 | 0.00 | 0.25 | 0.15 | 91 | 1012.2 |
| 20260507162535 | 12 | 155 | 3.2 | 4.8 | 0.00 | 0.25 | 0.15 | 91 | 1012.3 |
| 20260507162036 | 12 | 257 | 3.2 | 4.8 | 0.00 | 0.25 | 0.15 | 91 | 1012.4 |
| 20260507161542 | 12 | 187 | 0.0 | 1.6 | 0.00 | 0.25 | 0.15 | 91 | 1012.3 |
| 20260507161034 | 12 | 231 | 0.0 | 3.2 | 0.00 | 0.25 | 0.15 | 91 | 1012.4 |
| 20260507160534 | 12 | 0 | 0.0 | 4.8 | 0.03 | 0.25 | 0.15 | 90 | 1012.3 |
| 20260507160041 | 12 | 351 | 1.6 | 4.8 | 0.03 | 0.25 | 0.15 | 89 | 1012.4 |
| 20260507155534 | 12 | 348 | 0.0 | 3.2 | 0.03 | 0.25 | 0.15 | 89 | 1012.5 |
| 20260507155038 | 12 | 0 | 0.0 | 0.0 | 0.03 | 0.25 | 0.15 | 91 | 1012.5 |
| 20260507154547 | 12 | 0 | 0.0 | 0.0 | 0.03 | 0.25 | 0.15 | 91 | 1012.4 |
| 20260507154035 | 12 | 0 | 0.0 | 0.0 | 0.03 | 0.25 | 0.15 | 91 | 1012.6 |
| 20260507153536 | 12 | 0 | 0.0 | 3.2 | 0.05 | 0.25 | 0.15 | 91 | 1012.5 |
| 20260507153051 | 12 | 0 | 0.0 | 6.4 | 0.05 | 0.25 | 0.15 | 92 | 1012.7 |
| 20260507152534 | 12 | 351 | 3.2 | 6.4 | 0.05 | 0.25 | 0.15 | 92 | 1012.6 |
| 20260507152035 | 12 | 214 | 0.0 | 1.6 | 0.08 | 0.25 | 0.15 | 92 | 1012.5 |
| 20260507151545 | 12 | 0 | 0.0 | 1.6 | 0.08 | 0.25 | 0.15 | 92 | 1012.6 |
| 20260507151034 | 12 | 0 | 0.0 | 1.6 | 0.10 | 0.25 | 0.15 | 92 | 1012.6 |
| 20260507150538 | 12 | 0 | 0.0 | 0.0 | 0.10 | 0.23 | 0.13 | 92 | 1012.5 |
| 20260507150044 | 12 | 0 | 0.0 | 0.0 | 0.10 | 0.23 | 0.13 | 92 | 1012.6 |
| 20260507145535 | 12 | 0 | 0.0 | 0.0 | 0.10 | 0.23 | 0.13 | 91 | 1012.5 |
| 20260507145037 | 12 | 0 | 0.0 | 0.0 | 0.10 | 0.23 | 0.13 | 90 | 1012.5 |
| 20260507144550 | 12 | 0 | 0.0 | 0.0 | 0.10 | 0.23 | 0.13 | 91 | 1012.4 |
| 20260507144037 | 12 | 0 | 0.0 | 1.6 | 0.10 | 0.23 | 0.13 | 91 | 1012.5 |
| 20260507143536 | 12 | 0 | 0.0 | 1.6 | 0.08 | 0.20 | 0.10 | 90 | 1012.6 |
| 20260507143047 | 12 | 0 | 0.0 | 3.2 | 0.08 | 0.20 | 0.10 | 90 | 1012.7 |
| 20260507142537 | 12 | 0 | 0.0 | 3.2 | 0.08 | 0.20 | 0.10 | 89 | 1012.4 |
| 20260507142037 | 12 | 0 | 0.0 | 3.2 | 0.05 | 0.18 | 0.08 | 88 | 1012.4 |
| 20260507141552 | 12 | 283 | 0.0 | 1.6 | 0.05 | 0.18 | 0.08 | 85 | 1012.7 |
| 20260507141037 | 12 | 0 | 0.0 | 6.4 | 0.03 | 0.15 | 0.05 | 85 | 1012.7 |
| 20260507140536 | 13 | 283 | 1.6 | 6.4 | 0.00 | 0.13 | 0.03 | 82 | 1012.8 |
| 20260507140104 | 13 | 299 | 0.0 | 6.4 | 0.00 | 0.13 | 0.03 | 82 | 1012.5 |
| 20260507135536 | 13 | 343 | 3.2 | 6.4 | 0.00 | 0.25 | 0.03 | 80 | 1012.7 |
| 20260507135037 | 13 | 0 | 0.0 | 4.8 | 0.00 | 0.25 | 0.03 | 80 | 1012.7 |
| 20260507134548 | 13 | 0 | 0.0 | 4.8 | 0.00 | 0.25 | 0.03 | 80 | 1012.8 |
| 20260507134035 | 13 | 346 | 1.6 | 6.4 | 0.00 | 0.25 | 0.03 | 80 | 1012.7 |
| 20260507133540 | 13 | 326 | 1.6 | 6.4 | 0.00 | 0.25 | 0.03 | 80 | 1012.8 |
| 20260507133048 | 13 | 333 | 1.6 | 6.4 | 0.00 | 0.25 | 0.03 | 80 | 1012.8 |
| 20260507132536 | 13 | 352 | 0.0 | 4.8 | 0.00 | 0.25 | 0.03 | 83 | 1012.7 |
| 20260507132038 | 13 | 352 | 3.2 | 4.8 | 0.00 | 0.25 | 0.03 | 81 | 1012.8 |
| 20260507131554 | 13 | 72 | 0.0 | 6.4 | 0.00 | 0.25 | 0.03 | 82 | 1012.9 |
| 20260507131040 | 13 | 4 | 3.2 | 6.4 | 0.00 | 0.25 | 0.03 | 82 | 1012.7 |
| 20260507130537 | 13 | 354 | 1.6 | 4.8 | 0.00 | 0.25 | 0.03 | 82 | 1012.7 |
| 20260507130052 | 13 | 149 | 0.0 | 3.2 | 0.00 | 0.25 | 0.03 | 82 | 1012.8 |
| 20260507125536 | 13 | 0 | 0.0 | 1.6 | 0.00 | 0.33 | 0.03 | 83 | 1012.8 |
| 20260507125037 | 13 | 292 | 0.0 | 1.6 | 0.00 | 0.33 | 0.03 | 84 | 1012.8 |
| 20260507124552 | 13 | 0 | 0.0 | 4.8 | 0.00 | 0.33 | 0.03 | 85 | 1012.8 |
| 20260507124036 | 13 | 0 | 0.0 | 4.8 | 0.00 | 0.33 | 0.03 | 83 | 1012.7 |
| 20260507123536 | 13 | 290 | 0.0 | 3.2 | 0.00 | 0.33 | 0.03 | 83 | 1012.8 |
| 20260507123054 | 13 | 0 | 0.0 | 3.2 | 0.00 | 0.33 | 0.03 | 84 | 1012.8 |
| 20260507122536 | 13 | 0 | 0.0 | 4.8 | 0.00 | 0.33 | 0.03 | 84 | 1012.8 |
| 20260507122036 | 13 | 14 | 1.6 | 4.8 | 0.00 | 0.33 | 0.03 | 85 | 1012.8 |
| 20260507121550 | 13 | 10 | 1.6 | 6.4 | 0.00 | 0.33 | 0.03 | 85 | 1012.8 |
| 20260507121036 | 13 | 345 | 3.2 | 6.4 | 0.00 | 0.33 | 0.03 | 84 | 1012.7 |
| 20260507120536 | 13 | 26 | 1.6 | 6.4 | 0.00 | 0.33 | 0.03 | 86 | 1012.8 |
| 20260507120047 | 13 | 344 | 3.2 | 6.4 | 0.00 | 0.33 | 0.03 | 86 | 1012.9 |
| 20260507115534 | 13 | 0 | 0.0 | 4.8 | 0.00 | 0.41 | 0.03 | 87 | 1013.0 |
| 20260507115033 | 12 | 0 | 0.0 | 4.8 | 0.00 | 0.41 | 0.03 | 88 | 1012.9 |
| 20260507114543 | 12 | 3 | 0.0 | 3.2 | 0.00 | 0.41 | 0.03 | 89 | 1012.7 |
| 20260507114036 | 12 | 15 | 0.0 | 1.6 | 0.00 | 0.41 | 0.03 | 92 | 1012.4 |
| 20260507113535 | 12 | 0 | 0.0 | 0.0 | 0.00 | 0.41 | 0.03 | 92 | 1012.5 |
| 20260507113052 | 12 | 0 | 0.0 | 0.0 | 0.00 | 0.41 | 0.03 | 92 | 1012.4 |
| 20260507112534 | 12 | 0 | 0.0 | 0.0 | 0.00 | 0.41 | 0.03 | 92 | 1012.5 |
| 20260507112034 | 12 | 0 | 0.0 | 1.6 | 0.00 | 0.41 | 0.03 | 92 | 1012.5 |
| 20260507111548 | 12 | 0 | 0.0 | 1.6 | 0.00 | 0.41 | 0.03 | 92 | 1012.4 |
| 20260507111033 | 12 | 0 | 0.0 | 0.0 | 0.00 | 0.41 | 0.03 | 93 | 1012.4 |
| 20260507110534 | 12 | 0 | 0.0 | 3.2 | 0.00 | 0.41 | 0.03 | 93 | 1012.7 |
| 20260507110042 | 12 | 0 | 0.0 | 3.2 | 0.00 | 0.41 | 0.03 | 93 | 1012.4 |
| 20260507105533 | 12 | 330 | 1.6 | 3.2 | 0.00 | 0.43 | 0.03 | 93 | 1012.1 |
| 20260507105033 | 12 | 285 | 0.0 | 3.2 | 0.00 | 0.43 | 0.03 | 94 | 1012.3 |
| 20260507104547 | 11 | 0 | 0.0 | 1.6 | 0.00 | 0.43 | 0.03 | 94 | 1012.3 |
| 20260507104034 | 11 | 0 | 0.0 | 1.6 | 0.00 | 0.43 | 0.03 | 93 | 1012.1 |
| 20260507103533 | 11 | 0 | 0.0 | 1.6 | 0.00 | 0.43 | 0.03 | 93 | 1011.9 |
| 20260507103046 | 11 | 0 | 0.0 | 3.2 | 0.00 | 0.43 | 0.03 | 93 | 1011.8 |
| 20260507102533 | 11 | 0 | 1.6 | 3.2 | 0.00 | 0.43 | 0.03 | 93 | 1011.7 |
| 20260507102034 | 12 | 158 | 1.6 | 3.2 | 0.00 | 0.43 | 0.03 | 93 | 1011.8 |
| 20260507101547 | 12 | 157 | 0.0 | 0.0 | 0.00 | 0.43 | 0.03 | 92 | 1011.9 |
| 20260507101036 | 12 | 0 | 0.0 | 0.0 | 0.00 | 0.43 | 0.03 | 92 | 1011.9 |
| 20260507100534 | 12 | 0 | 0.0 | 0.0 | 0.00 | 0.43 | 0.03 | 91 | 1011.7 |
| 20260507100044 | 12 | 0 | 0.0 | 0.0 | 0.00 | 0.43 | 0.03 | 91 | 1011.9 |
| 20260507095534 | 12 | 0 | 0.0 | 0.0 | 0.00 | 0.43 | 0.03 | 91 | 1011.9 |
| 20260507095034 | 12 | 0 | 0.0 | 0.0 | 0.00 | 0.43 | 0.03 | 90 | 1011.8 |
| 20260507094538 | 12 | 0 | 0.0 | 0.0 | 0.00 | 0.43 | 0.03 | 90 | 1011.7 |
| 20260507094033 | 12 | 0 | 0.0 | 0.0 | 0.00 | 0.43 | 0.03 | 90 | 1011.9 |
| 20260507093533 | 12 | 0 | 0.0 | 1.6 | 0.00 | 0.43 | 0.03 | 89 | 1011.8 |
| 20260507093040 | 13 | 0 | 0.0 | 4.8 | 0.00 | 0.43 | 0.03 | 89 | 1011.8 |
| 20260507092535 | 13 | 0 | 0.0 | 4.8 | 0.00 | 0.43 | 0.03 | 88 | 1011.9 |
| 20260507092037 | 13 | 340 | 0.0 | 1.6 | 0.00 | 0.43 | 0.03 | 87 | 1011.7 |
| 20260507091545 | 13 | 0 | 0.0 | 4.8 | 0.00 | 0.43 | 0.03 | 86 | 1011.8 |
| 20260507091034 | 13 | 0 | 0.0 | 4.8 | 0.00 | 0.43 | 0.03 | 87 | 1011.6 |
| 20260507090534 | 13 | 229 | 0.0 | 4.8 | 0.00 | 0.43 | 0.03 | 87 | 1011.3 |
| 20260507090044 | 13 | 0 | 0.0 | 0.0 | 0.00 | 0.43 | 0.03 | 89 | 1011.2 |
| 20260507085534 | 13 | 0 | 0.0 | 4.8 | 0.00 | 0.43 | 0.03 | 88 | 1011.7 |
| 20260507085035 | 13 | 0 | 0.0 | 4.8 | 0.00 | 0.43 | 0.03 | 87 | 1011.8 |
| 20260507084553 | 13 | 0 | 0.0 | 3.2 | 0.00 | 0.43 | 0.03 | 89 | 1012.0 |
| 20260507084036 | 13 | 347 | 1.6 | 3.2 | 0.00 | 0.43 | 0.03 | 89 | 1012.1 |
| 20260507083537 | 13 | 12 | 0.0 | 3.2 | 0.00 | 0.43 | 0.03 | 89 | 1012.2 |
| 20260507083047 | 13 | 0 | 0.0 | 3.2 | 0.00 | 0.43 | 0.03 | 88 | 1012.5 |
| 20260507082538 | 13 | 0 | 0.0 | 0.0 | 0.00 | 0.43 | 0.03 | 88 | 1012.3 |
| 20260507082039 | 13 | 0 | 0.0 | 0.0 | 0.00 | 0.43 | 0.03 | 87 | 1011.9 |
| 20260507081547 | 13 | 0 | 0.0 | 3.2 | 0.00 | 0.43 | 0.03 | 86 | 1011.7 |
| 20260507081040 | 14 | 0 | 0.0 | 3.2 | 0.00 | 0.43 | 0.03 | 85 | 1011.5 |
| 20260507080535 | 14 | 148 | 0.0 | 3.2 | 0.00 | 0.43 | 0.03 | 85 | 1011.4 |
| 20260507080116 | 14 | 257 | 1.6 | 3.2 | 0.00 | 0.43 | 0.03 | 84 | 1011.8 |
| 20260507075535 | 14 | 0 | 0.0 | 11.3 | 0.00 | 0.43 | 0.03 | 83 | 1011.8 |
| 20260507075036 | 15 | 0 | 0.0 | 11.3 | 0.00 | 0.43 | 0.03 | 83 | 1011.8 |
| 20260507074546 | 15 | 296 | 0.0 | 6.4 | 0.00 | 0.43 | 0.03 | 82 | 1011.6 |
| 20260507074036 | 15 | 295 | 0.0 | 4.8 | 0.00 | 0.43 | 0.03 | 82 | 1011.7 |
| 20260507073536 | 15 | 0 | 1.6 | 8.0 | 0.00 | 0.43 | 0.03 | 82 | 1011.7 |
| 20260507073047 | 15 | 46 | 3.2 | 8.0 | 0.00 | 0.43 | 0.03 | 82 | 1011.5 |
| 20260507072536 | 15 | 0 | 3.2 | 12.9 | 0.00 | 0.43 | 0.03 | 82 | 1011.7 |
| 20260507072037 | 15 | 283 | 1.6 | 12.9 | 0.00 | 0.43 | 0.03 | 82 | 1011.5 |
| 20260507071557 | 15 | 257 | 3.2 | 12.9 | 0.00 | 0.43 | 0.03 | 82 | 1011.6 |
| 20260507071036 | 15 | 279 | 3.2 | 11.3 | 0.00 | 0.43 | 0.03 | 82 | 1011.7 |
| 20260507070536 | 15 | 0 | 3.2 | 14.5 | 0.00 | 0.43 | 0.03 | 83 | 1012.0 |
| 20260507070039 | 15 | 285 | 6.4 | 14.5 | 0.00 | 0.43 | 0.03 | 83 | 1012.0 |
| 20260507065535 | 15 | 351 | 1.6 | 14.5 | 0.00 | 0.43 | 0.03 | 83 | 1011.9 |
| 20260507065035 | 15 | 342 | 4.8 | 19.3 | 0.00 | 0.43 | 0.03 | 82 | 1011.6 |
| 20260507064551 | 15 | 0 | 1.6 | 19.3 | 0.00 | 0.43 | 0.03 | 83 | 1011.6 |
| 20260507064036 | 15 | 288 | 3.2 | 9.7 | 0.00 | 0.43 | 0.03 | 85 | 1011.5 |
| 20260507063535 | 15 | 7 | 4.8 | 9.7 | 0.00 | 0.43 | 0.03 | 86 | 1011.1 |
| 20260507063046 | 15 | 113 | 1.6 | 9.7 | 0.00 | 0.43 | 0.03 | 85 | 1011.5 |
| 20260507062536 | 15 | 343 | 3.2 | 9.7 | 0.00 | 0.43 | 0.03 | 84 | 1011.7 |
| 20260507062035 | 15 | 122 | 1.6 | 6.4 | 0.00 | 0.43 | 0.03 | 85 | 1011.8 |
| 20260507061541 | 15 | 142 | 1.6 | 12.9 | 0.00 | 0.43 | 0.03 | 83 | 1011.7 |
| 20260507061036 | 15 | 274 | 3.2 | 12.9 | 0.00 | 0.43 | 0.03 | 84 | 1011.6 |
| 20260507060536 | 15 | 304 | 4.8 | 11.3 | 0.00 | 0.43 | 0.03 | 84 | 1011.7 |
| 20260507060040 | 15 | 285 | 4.8 | 11.3 | 0.00 | 0.43 | 0.03 | 85 | 1011.7 |
| 20260507055538 | 15 | 350 | 3.2 | 8.0 | 0.00 | 0.43 | 0.03 | 85 | 1012.1 |
| 20260507055035 | 15 | 268 | 1.6 | 14.5 | 0.00 | 0.43 | 0.03 | 85 | 1012.0 |
| 20260507054541 | 16 | 326 | 3.2 | 14.5 | 0.00 | 0.43 | 0.03 | 84 | 1011.9 |
| 20260507054036 | 16 | 314 | 8.0 | 16.1 | 0.00 | 0.43 | 0.03 | 84 | 1012.2 |
| 20260507053535 | 16 | 307 | 6.4 | 16.1 | 0.00 | 0.43 | 0.03 | 84 | 1012.5 |
| 20260507053042 | 16 | 345 | 4.8 | 24.1 | 0.00 | 0.43 | 0.03 | 84 | 1012.6 |
| 20260507052535 | 16 | 320 | 6.4 | 24.1 | 0.00 | 0.43 | 0.03 | 84 | 1012.4 |
| 20260507052035 | 16 | 320 | 4.8 | 17.7 | 0.03 | 0.43 | 0.03 | 84 | 1012.3 |
| 20260507051545 | 16 | 306 | 8.0 | 16.1 | 0.03 | 0.43 | 0.03 | 85 | 1012.5 |
| 20260507051035 | 16 | 314 | 4.8 | 19.3 | 0.03 | 0.43 | 0.03 | 87 | 1012.5 |
| 20260507050536 | 16 | 274 | 6.4 | 19.3 | 0.03 | 0.43 | 0.03 | 89 | 1012.2 |
| 20260507050044 | 15 | 10 | 4.8 | 12.9 | 0.03 | 0.43 | 0.03 | 90 | 1012.1 |
| 20260507045536 | 15 | 0 | 1.6 | 9.7 | 0.03 | 0.43 | 0.03 | 92 | 1011.8 |
| 20260507045035 | 15 | 287 | 4.8 | 12.9 | 0.03 | 0.43 | 0.03 | 93 | 1011.8 |
| 20260507044539 | 15 | 347 | 4.8 | 12.9 | 0.03 | 0.43 | 0.03 | 94 | 1011.4 |